Flag for Senegal Weather past 2 weeks in Dakar, Senegal

Now
70 °F

Clear.


Feels Like: 70 °F
Forecast: 66 / 77 °F
Wind: 8 mph from North

Location: Dakar / Yoff


UV Index: 10 (Very high)

Visibility: 10 mi


Pressure: 29.86 "Hg

Humidity: 83%

Dew point: 64 °F

Location of DakarLocation

Historic Weather in Dakar

°F

Dakar temperature yesterday

Maximum temperature yesterday: 79 °F (at 11:30 AM)
Minimum temperature yesterday: 70 °F (at 4:00 AM)
Average temperature yesterday: 73 °F

Past Weeks' High & Low Weather Summary

 TemperatureHumidityPressure
High88 °F (Apr 18, 4:00 PM)100% (Apr 11, 8:00 AM)29.98 "Hg (Apr 11, 8:00 AM)
Low63 °F (Apr 10, 1:00 AM)38% (Apr 19, 6:00 PM)29.71 "Hg (Apr 17, 4:00 PM)
Average70 °F78%29.86 "Hg
* Reported Midnight between Apr 5 and Apr 6 — Apr 21 12:30 AM, Dakar, Weather by CustomWeather, © 2014

Note: Actual official high and low records may vary slightly from our data, if they occured in-between our weather recording intervals... More about our weather records

Advertising

Historic Weather Conditions — Data for Previous 24 hours

 ConditionsComfort  
Time TempWeatherWind HumidityBarometerVisibility
12:30 AM
Apr 21
70 °FClear.7 mph83%29.86 "Hg10 mi
12:00 AM70 °FClear.7 mph83%29.86 "Hg10 mi
11:30 PM
Apr 20
70 °FPassing clouds.5 mph83%29.86 "HgN/A
11:00 PM70 °FClear.5 mph83%29.86 "Hg10 mi
10:30 PM70 °FClear.5 mph78%29.86 "Hg10 mi
10:00 PM70 °FClear.5 mph83%29.83 "Hg10 mi
9:00 PM70 °FClear.6 mph83%29.83 "Hg10 mi
8:30 PM72 °FClear.7 mph78%29.83 "Hg10 mi
8:00 PM72 °FClear.9 mph78%29.80 "Hg10 mi
7:30 PM72 °FClear.10 mph78%29.80 "Hg10 mi
7:00 PM72 °FSunny.12 mph78%29.80 "Hg10 mi
6:30 PM73 °FSunny.15 mph74%29.80 "Hg10 mi
6:00 PM75 °FSunny.15 mph69%29.80 "Hg10 mi
5:30 PM75 °FSunny.16 mph69%29.80 "Hg10 mi
5:00 PM75 °FSunny.17 mph69%29.80 "Hg10 mi
4:30 PM77 °FSunny.16 mph65%29.80 "Hg10 mi
4:00 PM77 °FSunny.16 mph65%29.80 "Hg10 mi
3:30 PM79 °FSunny.16 mph61%29.80 "Hg10 mi
3:00 PM79 °FSunny.17 mph61%29.80 "Hg10 mi
2:30 PM79 °FSunny.16 mph61%29.83 "Hg10 mi
2:00 PM79 °FSunny.17 mph61%29.83 "Hg10 mi
1:30 PM79 °FSunny.17 mph61%29.83 "Hg10 mi
1:00 PM79 °FSunny.17 mph54%29.86 "Hg10 mi
12:30 PM79 °FSunny.18 mph54%29.86 "Hg10 mi
12:00 PM77 °FSunny.17 mph61%29.86 "Hg10 mi
11:30 AM79 °FSunny.17 mph58%29.86 "Hg10 mi
11:00 AM77 °FSunny.16 mph61%29.86 "Hg10 mi
10:30 AM77 °FSunny.15 mph61%29.86 "Hg10 mi
10:00 AM75 °FPassing clouds.14 mph69%29.86 "HgN/A
9:30 AM75 °FSunny.15 mph69%29.86 "Hg10 mi
9:00 AM73 °FSunny.13 mph74%29.86 "Hg10 mi
8:30 AM72 °FSunny.14 mph78%29.86 "Hg10 mi
8:00 AM72 °FSunny.12 mph78%29.86 "Hg10 mi
7:30 AM70 °FSunny.10 mph83%29.83 "Hg10 mi
7:00 AM70 °FSunny.10 mph78%29.83 "Hg10 mi
6:30 AM70 °FClear.9 mph78%29.83 "Hg10 mi
6:00 AM70 °FClear.8 mph78%29.83 "Hg10 mi
5:30 AM70 °FClear.8 mph78%29.83 "Hg10 mi
5:00 AM70 °FClear.5 mph78%29.83 "Hg10 mi
4:30 AM70 °FClear.5 mph78%29.83 "Hg10 mi
4:00 AM70 °FClear.3 mph78%29.83 "Hg10 mi
3:30 AM72 °FClear.5 mph73%29.83 "Hg10 mi
3:00 AM72 °FClear.7 mph73%29.86 "Hg5 mi
2:30 AM72 °FClear.5 mph73%29.86 "Hg5 mi
2:00 AM72 °FClear.5 mph73%29.86 "Hg5 mi
1:30 AM72 °FClear.5 mph69%29.89 "Hg5 mi
1:00 AM72 °FClear.1 mph69%29.89 "Hg5 mi
Weather by CustomWeather, © 2014

See weather overview